Starlink 11522

operational
NORAD ID: 63141 Int'l Des: 2025-043 Owner: SPXS Country: US Constellation: starlink
LEOCIRCULAR

Über Starlink 11522

Beschreibung wird geladen...

Live-Position

3D-Globus wird geladen...

Nächste Überflüge

Höhenverlauf

Altitude vs Time

uPlot chart will show altitude changes over time

Zweizeiliger Elementsatz

1 63141U 25043K 25351.28204957 .00218988 00000-0 16485-2 0 9994
2 63141 43.0009 27.2517 0002628 309.3783 50.6852 15.71083421 46332
Epoch: 17. Dez. 2025 • Age: 12 hours

Aktueller Status

Höhe 359.6 km
Geschwindigkeit 7.70 km/s
Subsatellitenpunkt -24.91°S, 14.31°W
Startdatum 3. März 2025
Alter 0.7 years
Typ internet

Technische Details

Klassifizierung Payload
Masse 960.00 kg
Trockenmasse 910.00 kg
Gesamtmasse 960.00 kg
Länge 0.30 m
Durchmesser 4.10 m
Spannweite 29.00 m
Form Box + pan
Hersteller SPXS
Bus-Typ Starlink V2MD
Phasenstatus In Orbit
Besitzer/Staat SPXS/US

Große Konstellationen

Loading constellations...